| time (UTC) | temp F | wind direction | speed MPH | gust MPH | rain 1hr in | rain 24hr in | rain mn in | humidity % | barometer mb |
| 20260505014145 | 58 | 340 | 0.0 | 0.0 | 0.00 | 0.00 | 0.00 | 63 | 1015.3 |
| 20260505013642 | 58 | 340 | 0.0 | 0.0 | 0.00 | 0.00 | 0.00 | 63 | 1015.2 |
| 20260505013139 | 58 | 340 | 0.0 | 0.0 | 0.00 | 0.00 | 0.00 | 63 | 1015.2 |
| 20260505012638 | 58 | 340 | 0.0 | 0.0 | 0.00 | 0.00 | 0.00 | 66 | 1015.2 |
| 20260505012134 | 58 | 340 | 0.0 | 0.0 | 0.00 | 0.00 | 0.00 | 64 | 1015.0 |
| 20260505011630 | 59 | 340 | 0.0 | 0.0 | 0.00 | 0.00 | 0.00 | 61 | 1014.9 |
| 20260505011128 | 59 | 340 | 0.0 | 0.0 | 0.00 | 0.00 | 0.00 | 61 | 1014.9 |
| 20260505010627 | 60 | 340 | 0.0 | 0.0 | 0.00 | 0.00 | 0.00 | 58 | 1015.0 |
| 20260505010125 | 60 | 340 | 0.0 | 0.0 | 0.00 | 0.00 | 0.00 | 56 | 1014.8 |
| 20260505005620 | 62 | 340 | 0.0 | 0.0 | 0.00 | 0.00 | 0.00 | 56 | 1014.7 |
| 20260505005118 | 62 | 339 | 0.0 | 0.0 | 0.00 | 0.00 | 0.00 | 53 | 1014.6 |
| 20260505004615 | 63 | 340 | 0.0 | 0.0 | 0.00 | 0.00 | 0.00 | 53 | 1014.6 |
| 20260505004112 | 64 | 340 | 0.0 | 0.0 | 0.00 | 0.00 | 0.00 | 53 | 1014.6 |
| 20260505003609 | 64 | 340 | 0.0 | 0.0 | 0.00 | 0.00 | 0.00 | 52 | 1014.3 |
| 20260505003106 | 64 | 340 | 0.0 | 0.0 | 0.00 | 0.00 | 0.00 | 54 | 1014.1 |
| 20260505002602 | 65 | 339 | 0.0 | 0.0 | 0.00 | 0.00 | 0.00 | 50 | 1014.1 |
| 20260505002101 | 66 | 339 | 0.0 | 0.0 | 0.00 | 0.00 | 0.00 | 46 | 1014.8 |
| 20260505001557 | 67 | 339 | 0.0 | 0.0 | 0.00 | 0.00 | 0.00 | 44 | 1014.3 |
| 20260505001055 | 67 | 339 | 0.0 | 0.0 | 0.00 | 0.00 | 0.00 | 43 | 1014.3 |
| 20260505000552 | 68 | 339 | 0.0 | 0.0 | 0.00 | 0.00 | 0.00 | 42 | 1014.5 |
| 20260505000049 | 68 | 339 | 0.0 | 0.0 | 0.00 | 0.00 | 0.00 | 44 | 1014.2 |
| 20260504235546 | 69 | 339 | 0.0 | 0.0 | 0.00 | 0.00 | 0.00 | 41 | 1014.0 |
| 20260504235043 | 70 | 327 | 0.0 | 0.0 | 0.00 | 0.00 | 0.00 | 39 | 1014.3 |
| 20260504234540 | 70 | 318 | 0.0 | 0.0 | 0.00 | 0.00 | 0.00 | 41 | 1014.1 |
| 20260504234037 | 70 | 331 | 0.0 | 0.0 | 0.00 | 0.00 | 0.00 | 41 | 1014.2 |
| 20260504233532 | 71 | 313 | 0.0 | 0.0 | 0.00 | 0.00 | 0.00 | 40 | 1014.0 |
| 20260504233029 | 71 | 330 | 0.0 | 0.0 | 0.00 | 0.00 | 0.00 | 42 | 1013.9 |
| 20260504232526 | 71 | 350 | 0.0 | 0.0 | 0.00 | 0.00 | 0.00 | 41 | 1013.8 |
| 20260504232024 | 71 | 342 | 0.0 | 0.0 | 0.00 | 0.00 | 0.00 | 38 | 1014.0 |
| 20260504231520 | 71 | 343 | 0.0 | 0.0 | 0.00 | 0.00 | 0.00 | 40 | 1013.7 |
| 20260504231016 | 72 | 336 | 0.0 | 0.0 | 0.00 | 0.00 | 0.00 | 39 | 1013.7 |
| 20260504230513 | 72 | 320 | 0.0 | 0.0 | 0.00 | 0.00 | 0.00 | 37 | 1013.7 |
| 20260504230012 | 73 | 329 | 0.0 | 1.0 | 0.00 | 0.00 | 0.00 | 38 | 1013.8 |
| 20260504225508 | 74 | 331 | 0.0 | 0.0 | 0.00 | 0.00 | 0.00 | 36 | 1013.7 |
| 20260504225005 | 74 | 238 | 1.0 | 2.0 | 0.00 | 0.00 | 0.00 | 33 | 1013.7 |
| 20260504224502 | 74 | 199 | 0.0 | 1.0 | 0.00 | 0.00 | 0.00 | 34 | 1013.9 |
| 20260504223959 | 74 | 268 | 1.0 | 1.0 | 0.00 | 0.00 | 0.00 | 34 | 1013.8 |
| 20260504223455 | 74 | 210 | 1.0 | 2.0 | 0.00 | 0.00 | 0.00 | 35 | 1013.7 |
| 20260504222951 | 74 | 346 | 0.0 | 0.0 | 0.00 | 0.00 | 0.00 | 32 | 1013.9 |
| 20260504222449 | 74 | 304 | 1.0 | 2.0 | 0.00 | 0.00 | 0.00 | 35 | 1013.8 |
| 20260504221946 | 74 | 242 | 1.0 | 2.0 | 0.00 | 0.00 | 0.00 | 37 | 1013.4 |
| 20260504221443 | 75 | 268 | 0.0 | 1.0 | 0.00 | 0.00 | 0.00 | 35 | 1013.6 |
| 20260504220940 | 74 | 191 | 1.0 | 1.0 | 0.00 | 0.00 | 0.00 | 36 | 1013.7 |
| 20260504220436 | 74 | 316 | 0.0 | 0.0 | 0.00 | 0.00 | 0.00 | 34 | 1013.8 |
| 20260504215934 | 75 | 344 | 0.0 | 0.0 | 0.00 | 0.00 | 0.00 | 35 | 1013.9 |
| 20260504215431 | 75 | 259 | 1.0 | 2.0 | 0.00 | 0.00 | 0.00 | 35 | 1013.8 |
| 20260504214927 | 75 | 241 | 2.0 | 2.0 | 0.00 | 0.00 | 0.00 | 33 | 1013.9 |
| 20260504214423 | 75 | 303 | 1.0 | 1.0 | 0.00 | 0.00 | 0.00 | 33 | 1013.7 |
| 20260504213920 | 75 | 317 | 1.0 | 1.0 | 0.00 | 0.00 | 0.00 | 35 | 1013.7 |
| 20260504213416 | 75 | 314 | 0.0 | 0.0 | 0.00 | 0.00 | 0.00 | 36 | 1013.6 |
| 20260504212914 | 76 | 287 | 0.0 | 0.0 | 0.00 | 0.00 | 0.00 | 36 | 1013.9 |
| 20260504212409 | 76 | 255 | 2.0 | 3.0 | 0.00 | 0.00 | 0.00 | 35 | 1014.0 |
| 20260504211908 | 76 | 309 | 0.0 | 1.0 | 0.00 | 0.00 | 0.00 | 34 | 1013.8 |
| 20260504211403 | 76 | 292 | 2.0 | 2.0 | 0.00 | 0.00 | 0.00 | 33 | 1013.8 |
| 20260504210900 | 76 | 268 | 1.0 | 1.0 | 0.00 | 0.00 | 0.00 | 34 | 1013.9 |
| 20260504210357 | 75 | 348 | 0.0 | 0.0 | 0.00 | 0.00 | 0.00 | 35 | 1013.9 |
| 20260504205854 | 75 | 256 | 1.0 | 1.0 | 0.00 | 0.00 | 0.00 | 35 | 1013.7 |
| 20260504205352 | 75 | 240 | 1.0 | 1.0 | 0.00 | 0.00 | 0.00 | 35 | 1013.9 |
| 20260504204850 | 75 | 313 | 0.0 | 1.0 | 0.00 | 0.00 | 0.00 | 36 | 1014.1 |
| 20260504204348 | 76 | 310 | 1.0 | 1.0 | 0.00 | 0.00 | 0.00 | 34 | 1014.2 |
| 20260504203848 | 76 | 257 | 1.0 | 1.0 | 0.00 | 0.00 | 0.00 | 35 | 1014.0 |
| 20260504203344 | 76 | 285 | 0.0 | 1.0 | 0.00 | 0.00 | 0.00 | 34 | 1014.3 |
| 20260504202840 | 77 | 205 | 2.0 | 3.0 | 0.00 | 0.00 | 0.00 | 34 | 1014.5 |
| 20260504202337 | 77 | 223 | 1.0 | 1.0 | 0.00 | 0.00 | 0.00 | 33 | 1014.5 |
| 20260504201833 | 78 | 263 | 1.0 | 2.0 | 0.00 | 0.00 | 0.00 | 34 | 1014.6 |
| 20260504201331 | 79 | 264 | 1.0 | 1.0 | 0.00 | 0.00 | 0.00 | 34 | 1014.7 |
| 20260504200828 | 79 | 264 | 1.0 | 1.0 | 0.00 | 0.00 | 0.00 | 33 | 1014.5 |
| 20260504200325 | 78 | 283 | 1.0 | 1.0 | 0.00 | 0.00 | 0.00 | 32 | 1014.7 |
| 20260504195821 | 78 | 218 | 2.0 | 2.0 | 0.00 | 0.00 | 0.00 | 34 | 1014.8 |
| 20260504195317 | 78 | 215 | 2.0 | 2.0 | 0.00 | 0.00 | 0.00 | 33 | 1015.0 |
| 20260504194814 | 79 | 275 | 2.0 | 2.0 | 0.00 | 0.00 | 0.00 | 33 | 1014.9 |
| 20260504194310 | 79 | 262 | 2.0 | 2.0 | 0.00 | 0.00 | 0.00 | 33 | 1014.9 |
| 20260504193806 | 79 | 150 | 0.0 | 0.0 | 0.00 | 0.00 | 0.00 | 33 | 1015.1 |
| 20260504193304 | 78 | 278 | 1.0 | 1.0 | 0.00 | 0.00 | 0.00 | 34 | 1015.2 |
| 20260504192802 | 80 | 251 | 3.0 | 3.0 | 0.00 | 0.00 | 0.00 | 35 | 1015.1 |
| 20260504192300 | 79 | 254 | 1.0 | 1.0 | 0.00 | 0.00 | 0.00 | 32 | 1015.2 |
| 20260504191758 | 79 | 309 | 1.0 | 1.0 | 0.00 | 0.00 | 0.00 | 31 | 1015.3 |
| 20260504191255 | 78 | 187 | 2.0 | 3.0 | 0.00 | 0.00 | 0.00 | 35 | 1015.4 |
| 20260504190750 | 79 | 247 | 2.0 | 5.0 | 0.00 | 0.00 | 0.00 | 34 | 1015.5 |
| 20260504190247 | 79 | 243 | 0.0 | 1.0 | 0.00 | 0.00 | 0.00 | 32 | 1015.4 |
| 20260504185743 | 79 | 248 | 2.0 | 3.0 | 0.00 | 0.00 | 0.00 | 32 | 1015.7 |
| 20260504185241 | 79 | 252 | 1.0 | 2.0 | 0.00 | 0.00 | 0.00 | 35 | 1015.4 |
| 20260504184737 | 78 | 267 | 1.0 | 2.0 | 0.00 | 0.00 | 0.00 | 35 | 1015.4 |
| 20260504184233 | 79 | 323 | 1.0 | 2.0 | 0.00 | 0.00 | 0.00 | 35 | 1015.5 |
| 20260504183728 | 78 | 51 | 0.0 | 0.0 | 0.00 | 0.00 | 0.00 | 37 | 1015.7 |
| 20260504183226 | 78 | 258 | 2.0 | 2.0 | 0.00 | 0.00 | 0.00 | 37 | 1015.9 |
| 20260504182724 | 78 | 237 | 0.0 | 1.0 | 0.00 | 0.00 | 0.00 | 34 | 1015.9 |
| 20260504182221 | 78 | 309 | 0.0 | 0.0 | 0.00 | 0.00 | 0.00 | 37 | 1015.8 |
| 20260504181718 | 77 | 282 | 0.0 | 1.0 | 0.00 | 0.00 | 0.00 | 35 | 1015.8 |
| 20260504181216 | 77 | 15 | 1.0 | 1.0 | 0.00 | 0.00 | 0.00 | 37 | 1016.0 |
| 20260504180715 | 78 | 256 | 2.0 | 2.0 | 0.00 | 0.00 | 0.00 | 37 | 1016.0 |
| 20260504180213 | 78 | 267 | 2.0 | 2.0 | 0.00 | 0.00 | 0.00 | 36 | 1015.8 |
| 20260504175710 | 78 | 199 | 1.0 | 2.0 | 0.00 | 0.00 | 0.00 | 35 | 1015.8 |
| 20260504175206 | 77 | 78 | 1.0 | 1.0 | 0.00 | 0.00 | 0.00 | 37 | 1016.0 |
| 20260504174704 | 77 | 213 | 3.0 | 3.0 | 0.00 | 0.00 | 0.00 | 37 | 1015.8 |
| 20260504174202 | 76 | 316 | 0.0 | 1.0 | 0.00 | 0.00 | 0.00 | 36 | 1016.0 |
| 20260504173658 | 77 | 55 | 2.0 | 2.0 | 0.00 | 0.00 | 0.00 | 33 | 1016.1 |
| 20260504173155 | 77 | 230 | 2.0 | 2.0 | 0.00 | 0.00 | 0.00 | 36 | 1016.2 |
| 20260504172652 | 76 | 18 | 0.0 | 1.0 | 0.00 | 0.00 | 0.00 | 37 | 1016.2 |
| 20260504172148 | 77 | 240 | 2.0 | 2.0 | 0.00 | 0.00 | 0.00 | 38 | 1016.1 |
| 20260504171645 | 77 | 8 | 0.0 | 1.0 | 0.00 | 0.00 | 0.00 | 35 | 1016.2 |
| 20260504171142 | 77 | 254 | 1.0 | 1.0 | 0.00 | 0.00 | 0.00 | 38 | 1016.4 |
| 20260504170638 | 76 | 304 | 0.0 | 1.0 | 0.00 | 0.00 | 0.00 | 34 | 1016.5 |
| 20260504170136 | 76 | 302 | 0.0 | 1.0 | 0.00 | 0.00 | 0.00 | 37 | 1016.6 |
| 20260504151027 | 70 | 352 | 1.0 | 1.0 | 0.00 | 0.00 | 0.00 | 45 | 1018.0 |
| 20260504150525 | 71 | 292 | 1.0 | 1.0 | 0.00 | 0.00 | 0.00 | 43 | 1017.9 |
| 20260504140951 | 68 | 55 | 0.0 | 2.0 | 0.00 | 0.00 | 0.00 | 52 | 1017.8 |
| 20260504140447 | 66 | 7 | 0.0 | 1.0 | 0.00 | 0.00 | 0.00 | 54 | 1018.0 |
| 20260504130412 | 57 | 333 | 0.0 | 0.0 | 0.00 | 0.00 | 0.00 | 72 | 1017.8 |
| 20260504110259 | 37 | 0 | 0.0 | 0.0 | 0.00 | 0.00 | 0.00 | 99 | 1017.7 |
| 20260504100217 | 37 | 359 | 0.0 | 0.0 | 0.00 | 0.00 | 0.00 | 99 | 1017.5 |
| 20260504090139 | 38 | 359 | 0.0 | 0.0 | 0.00 | 0.00 | 0.00 | 99 | 1017.5 |
| 20260504081610 | 38 | 352 | 0.0 | 0.0 | 0.00 | 0.00 | 0.00 | 99 | 1017.4 |
| 20260504081106 | 39 | 352 | 0.0 | 0.0 | 0.00 | 0.00 | 0.00 | 99 | 1017.5 |
| 20260504080603 | 39 | 352 | 0.0 | 0.0 | 0.00 | 0.00 | 0.00 | 99 | 1017.4 |
| 20260504050415 | 42 | 353 | 0.0 | 0.0 | 0.00 | 0.00 | 0.00 | 92 | 1017.8 |
| 20260504045912 | 43 | 353 | 0.0 | 0.0 | 0.00 | 0.00 | 0.00 | 92 | 1017.4 |
| 20260504045408 | 43 | 353 | 0.0 | 0.0 | 0.00 | 0.00 | 0.00 | 92 | 1017.5 |
| 20260504044904 | 43 | 353 | 0.0 | 0.0 | 0.00 | 0.00 | 0.00 | 93 | 1017.3 |
| 20260504044402 | 42 | 1 | 0.0 | 0.0 | 0.00 | 0.00 | 0.00 | 93 | 1017.3 |
| 20260504043859 | 42 | 1 | 0.0 | 0.0 | 0.00 | 0.00 | 0.00 | 92 | 1017.2 |
| 20260504043356 | 42 | 1 | 0.0 | 0.0 | 0.00 | 0.00 | 0.00 | 92 | 1017.3 |
| 20260504042854 | 43 | 1 | 0.0 | 0.0 | 0.00 | 0.00 | 0.00 | 92 | 1017.3 |
| 20260504042349 | 42 | 1 | 0.0 | 0.0 | 0.00 | 0.00 | 0.00 | 92 | 1017.2 |
| 20260504041846 | 42 | 1 | 0.0 | 0.0 | 0.00 | 0.00 | 0.00 | 92 | 1017.2 |
| 20260504041342 | 42 | 1 | 0.0 | 0.0 | 0.00 | 0.00 | 0.00 | 91 | 1017.3 |
| 20260504040838 | 43 | 1 | 0.0 | 0.0 | 0.00 | 0.00 | 0.00 | 91 | 1017.3 |
| 20260504040336 | 43 | 348 | 0.0 | 0.0 | 0.00 | 0.00 | 0.00 | 91 | 1017.4 |
| 20260504035832 | 43 | 348 | 0.0 | 0.0 | 0.00 | 0.00 | 0.00 | 90 | 1017.4 |
| 20260504035330 | 43 | 348 | 0.0 | 0.0 | 0.00 | 0.00 | 0.00 | 89 | 1017.5 |
| 20260504034827 | 44 | 348 | 0.0 | 0.0 | 0.00 | 0.00 | 0.00 | 87 | 1017.5 |
| 20260504034324 | 44 | 348 | 0.0 | 0.0 | 0.00 | 0.00 | 0.00 | 87 | 1017.3 |
| 20260504033821 | 44 | 348 | 0.0 | 0.0 | 0.00 | 0.00 | 0.00 | 87 | 1017.5 |
| 20260504033319 | 44 | 348 | 0.0 | 0.0 | 0.00 | 0.00 | 0.00 | 87 | 1017.5 |
| 20260504032815 | 44 | 348 | 0.0 | 0.0 | 0.00 | 0.00 | 0.00 | 87 | 1017.6 |
| 20260504032313 | 44 | 348 | 0.0 | 0.0 | 0.00 | 0.00 | 0.00 | 87 | 1017.6 |
| 20260504031809 | 44 | 348 | 0.0 | 0.0 | 0.00 | 0.00 | 0.00 | 88 | 1017.6 |
| 20260504031307 | 44 | 348 | 0.0 | 0.0 | 0.00 | 0.00 | 0.00 | 87 | 1017.7 |
| 20260504030803 | 44 | 348 | 0.0 | 0.0 | 0.00 | 0.00 | 0.00 | 87 | 1017.5 |
| 20260504030300 | 44 | 348 | 0.0 | 0.0 | 0.00 | 0.00 | 0.00 | 87 | 1017.5 |
| 20260504025756 | 44 | 348 | 0.0 | 0.0 | 0.00 | 0.00 | 0.00 | 87 | 1017.8 |
| 20260504025253 | 45 | 348 | 0.0 | 0.0 | 0.00 | 0.00 | 0.00 | 86 | 1017.4 |
| 20260504024750 | 45 | 348 | 0.0 | 0.0 | 0.00 | 0.00 | 0.00 | 85 | 1017.5 |
| 20260504024247 | 45 | 348 | 0.0 | 0.0 | 0.00 | 0.00 | 0.00 | 84 | 1017.7 |
| 20260504023744 | 45 | 348 | 0.0 | 0.0 | 0.00 | 0.00 | 0.00 | 84 | 1017.4 |
| 20260504023240 | 46 | 348 | 0.0 | 0.0 | 0.00 | 0.00 | 0.00 | 83 | 1017.6 |
| 20260504022736 | 46 | 348 | 0.0 | 0.0 | 0.00 | 0.00 | 0.00 | 82 | 1017.6 |
| 20260504022232 | 46 | 348 | 0.0 | 0.0 | 0.00 | 0.00 | 0.00 | 81 | 1017.4 |
| 20260504021729 | 47 | 348 | 0.0 | 0.0 | 0.00 | 0.00 | 0.00 | 81 | 1017.3 |
| 20260504021226 | 47 | 348 | 0.0 | 0.0 | 0.00 | 0.00 | 0.00 | 78 | 1017.1 |
| 20260504020723 | 47 | 348 | 0.0 | 0.0 | 0.00 | 0.00 | 0.00 | 79 | 1017.1 |
| 20260504020220 | 48 | 348 | 0.0 | 0.0 | 0.00 | 0.00 | 0.00 | 78 | 1017.3 |
| 20260504015716 | 48 | 348 | 0.0 | 0.0 | 0.00 | 0.00 | 0.00 | 78 | 1016.9 |
| 20260504015213 | 48 | 348 | 0.0 | 0.0 | 0.00 | 0.00 | 0.00 | 77 | 1017.0 |
| 20260504014708 | 48 | 348 | 0.0 | 0.0 | 0.00 | 0.00 | 0.00 | 75 | 1016.7 |